W0KHZ Weather Reports


time (UTC)temp
C
wind
direction
speed
KPH
gust
KPH
rain 1hr
cm
rain 24hr
cm
rain mn
cm
humidity
%
barometer
mb
20260504185532 22 311 4.8 14.5 0.00 0.00 0.00 33 995.9
20260504185051 22 260 6.4 20.9 0.00 0.00 0.00 33 996.0
20260504184528 22 261 6.4 17.7 0.00 0.00 0.00 33 996.0
20260504184047 22 276 4.8 22.5 0.00 0.00 0.00 32 995.8
20260504183525 23 270 8.0 20.9 0.00 0.00 0.00 33 995.8
20260504183023 23 307 6.4 20.9 0.00 0.00 0.00 35 995.7
20260504182521 23 235 6.4 17.7 0.00 0.00 0.00 37 995.6
20260504182040 23 272 4.8 17.7 0.00 0.00 0.00 37 995.8
20260504181538 23 303 4.8 14.5 0.00 0.00 0.00 39 995.6
20260504181016 23 317 9.7 22.5 0.00 0.00 0.00 38 995.7
20260504180534 23 317 8.0 29.0 0.00 0.00 0.00 39 995.6
20260504180032 23 254 4.8 14.5 0.00 0.00 0.00 40 995.5
20260504175530 23 247 8.0 24.1 0.00 0.00 0.00 40 995.5
20260504175028 23 230 3.2 14.5 0.00 0.00 0.00 39 995.6
20260504174526 23 314 6.4 16.1 0.00 0.00 0.00 39 995.7
20260504174025 23 214 6.4 16.1 0.00 0.00 0.00 40 995.7
20260504173523 23 313 6.4 16.1 0.00 0.00 0.00 39 995.8
20260504173021 23 319 6.4 37.0 0.00 0.00 0.00 39 995.7
20260504172519 23 303 4.8 16.1 0.00 0.00 0.00 40 995.6
20260504172018 23 271 6.4 14.5 0.00 0.00 0.00 41 995.7
20260504171516 23 314 8.0 24.1 0.00 0.00 0.00 39 995.6
20260504171034 23 314 8.0 25.7 0.00 0.00 0.00 40 995.7
20260504170531 23 317 6.4 22.5 0.00 0.00 0.00 39 995.7
20260504151019 21 314 4.8 14.5 0.00 0.00 0.00 41 996.0
20260504150517 21 302 8.0 27.4 0.00 0.00 0.00 41 995.9
20260504141016 17 162 1.6 6.4 0.00 0.00 0.00 53 995.7
20260504140534 17 109 3.2 9.7 0.00 0.00 0.00 53 995.9
20260504130531 12 358 3.2 4.8 0.00 0.00 0.00 64 996.7
20260504110525 3 0.0 0.0 0.00 0.00 0.00 83 997.4
20260504100523 3 253 0.0 3.2 0.00 0.00 0.00 81 998.1
20260504081523 5 0.0 0.0 0.00 0.00 0.00 79 999.8
20260504081021 5 0.0 0.0 0.00 0.00 0.00 78 999.9
20260504080519 5 0.0 0.0 0.00 0.00 0.00 78 999.8
20260504050532 8 0.0 0.0 0.00 0.00 0.00 66 1002.1
20260504045609 8 0.0 0.0 0.00 0.00 0.00 64 1002.3
20260504045027 8 0.0 0.0 0.00 0.00 0.00 64 1002.4
20260504044525 8 0.0 0.0 0.00 0.00 0.00 65 1002.4
20260504044022 8 0.0 0.0 0.00 0.00 0.00 64 1002.3
20260504043521 9 0.0 0.0 0.00 0.00 0.00 64 1002.4
20260504043019 9 0.0 0.0 0.00 0.00 0.00 63 1002.5
20260504042517 9 0.0 0.0 0.00 0.00 0.00 63 1002.4
20260504042035 10 0.0 0.0 0.00 0.00 0.00 62 1002.5
20260504041532 10 0.0 0.0 0.00 0.00 0.00 61 1002.5
20260504041030 10 0.0 0.0 0.00 0.00 0.00 62 1002.5
20260504040528 9 0.0 0.0 0.00 0.00 0.00 64 1002.7
20260504040026 10 0.0 0.0 0.00 0.00 0.00 63 1002.6
20260504035525 10 0.0 0.0 0.00 0.00 0.00 61 1002.6
20260504035023 10 0.0 0.0 0.00 0.00 0.00 60 1002.7
20260504034521 10 0.0 0.0 0.00 0.00 0.00 60 1002.8
20260504034040 10 0.0 0.0 0.00 0.00 0.00 60 1002.8
20260504033537 10 0.0 0.0 0.00 0.00 0.00 60 1002.8
20260504033016 11 0.0 0.0 0.00 0.00 0.00 59 1002.9
20260504032553 11 0.0 0.0 0.00 0.00 0.00 59 1002.9
20260504032031 11 0.0 0.0 0.00 0.00 0.00 57 1003.1
20260504031529 11 0.0 0.0 0.00 0.00 0.00 57 1003.1
20260504031027 11 0.0 0.0 0.00 0.00 0.00 59 1003.1
20260504030545 11 0.0 0.0 0.00 0.00 0.00 60 1002.9
20260504030023 11 0.0 0.0 0.00 0.00 0.00 61 1003.0
20260504025522 11 0.0 0.0 0.00 0.00 0.00 62 1003.1
20260504025040 11 0.0 0.0 0.00 0.00 0.00 59 1003.1
20260504024518 12 0.0 0.0 0.00 0.00 0.00 57 1003.0
20260504024036 12 0.0 0.0 0.00 0.00 0.00 55 1002.9
20260504023533 12 0.0 0.0 0.00 0.00 0.00 55 1002.9
20260504023030 12 0.0 0.0 0.00 0.00 0.00 55 1002.9
20260504022528 12 0.0 0.0 0.00 0.00 0.00 54 1002.9
20260504022026 12 0.0 0.0 0.00 0.00 0.00 53 1002.8
20260504021544 13 0.0 0.0 0.00 0.00 0.00 50 1002.7
20260504021042 13 0.0 0.0 0.00 0.00 0.00 49 1002.8
20260504020520 13 0.0 0.0 0.00 0.00 0.00 49 1002.7
20260504020018 14 0.0 0.0 0.00 0.00 0.00 48 1002.7
20260504015516 14 0.0 0.0 0.00 0.00 0.00 47 1002.7
20260504015034 15 0.0 0.0 0.00 0.00 0.00 47 1002.7
20260504014532 15 0.0 0.0 0.00 0.00 0.00 47 1002.6
20260504014050 16 0.0 0.0 0.00 0.00 0.00 44 1002.6
20260504013528 16 0.0 0.0 0.00 0.00 0.00 41 1002.4
20260504013026 17 326 0.0 1.6 0.00 0.00 0.00 39 1002.4
20260504012524 17 329 1.6 3.2 0.00 0.00 0.00 36 1002.5
20260504012022 17 330 1.6 3.2 0.00 0.00 0.00 35 1002.5
20260504011540 18 330 1.6 4.8 0.00 0.00 0.00 35 1002.6
20260504011018 18 330 1.6 4.8 0.00 0.00 0.00 35 1002.5
20260504010516 18 330 1.6 3.2 0.00 0.00 0.00 34 1002.4
20260504010034 18 305 1.6 4.8 0.00 0.00 0.00 34 1002.5
20260504005531 19 296 1.6 4.8 0.00 0.00 0.00 33 1002.3
20260504005029 19 296 1.6 1.6 0.00 0.00 0.00 33 1002.4
20260504004528 19 296 0.0 3.2 0.00 0.00 0.00 33 1002.3
20260504004026 20 313 1.6 6.4 0.00 0.00 0.00 33 1002.3
20260504003524 20 318 1.6 4.8 0.00 0.00 0.00 33 1002.2
20260504003042 20 321 3.2 9.7 0.00 0.00 0.00 33 1002.2
20260504002520 20 299 3.2 11.3 0.00 0.00 0.00 33 1002.2
20260504002039 20 292 1.6 6.4 0.00 0.00 0.00 33 1002.2
20260504001537 20 292 3.2 9.7 0.00 0.00 0.00 32 1002.1
20260504001055 20 278 3.2 11.3 0.00 0.00 0.00 34 1002.2
20260504000533 21 303 3.2 11.3 0.00 0.00 0.00 34 1002.3
20260504000030 21 288 1.6 9.7 0.00 0.00 0.00 34 1002.2
20260503235529 21 311 4.8 17.7 0.00 0.00 0.00 33 1002.1
20260503235027 21 303 4.8 12.9 0.00 0.00 0.00 33 1002.2
20260503234525 21 307 3.2 11.3 0.00 0.00 0.00 32 1002.2
20260503234043 21 292 3.2 9.7 0.00 0.00 0.00 32 1002.3
20260503233541 21 291 3.2 11.3 0.00 0.00 0.00 32 1002.3
20260503233019 21 311 6.4 17.7 0.00 0.00 0.00 32 1002.2
20260503232518 22 314 4.8 16.1 0.00 0.00 0.00 32 1002.2
20260503232016 22 312 4.8 20.9 0.00 0.00 0.00 32 1002.1
20260503231554 22 301 4.8 12.9 0.00 0.00 0.00 31 1002.0
20260503231031 22 324 4.8 16.1 0.00 0.00 0.00 31 1002.1
20260503230550 22 305 6.4 14.5 0.00 0.00 0.00 31 1002.2
20260503230027 22 299 6.4 16.1 0.00 0.00 0.00 30 1002.2
20260503225526 22 329 8.0 24.1 0.00 0.00 0.00 30 1002.0
20260503225024 22 313 6.4 16.1 0.00 0.00 0.00 30 1002.1
20260503224522 22 317 4.8 14.5 0.00 0.00 0.00 30 1002.0
20260503224021 22 324 6.4 16.1 0.00 0.00 0.00 30 1002.0
20260503223519 22 299 4.8 14.5 0.00 0.00 0.00 31 1001.9
20260503223037 22 310 4.8 16.1 0.00 0.00 0.00 31 1002.0
20260503222515 22 291 4.8 16.1 0.00 0.00 0.00 29 1002.0
20260503222033 22 295 8.0 24.1 0.00 0.00 0.00 30 1001.9
20260503221531 22 327 3.2 12.9 0.00 0.00 0.00 31 1001.9
20260503221029 22 334 3.2 20.9 0.00 0.00 0.00 30 1002.0
20260503220527 23 300 4.8 16.1 0.00 0.00 0.00 31 1002.0
20260503220025 23 298 3.2 11.3 0.00 0.00 0.00 31 1002.0
20260503215524 23 316 4.8 12.9 0.00 0.00 0.00 32 1002.1
20260503215102 23 300 6.4 16.1 0.00 0.00 0.00 32 1002.0
20260503214520 23 293 4.8 12.9 0.00 0.00 0.00 32 1002.0
20260503214018 23 307 6.4 14.5 0.00 0.00 0.00 31 1002.0
20260503213517 23 316 6.4 17.7 0.00 0.00 0.00 31 1002.0
20260503213035 23 301 6.4 16.1 0.00 0.00 0.00 31 1002.0
20260503212552 23 300 3.2 16.1 0.00 0.00 0.00 31 1002.1
20260503212030 23 315 4.8 20.9 0.00 0.00 0.00 31 1002.2
20260503211528 23 314 4.8 11.3 0.00 0.00 0.00 31 1002.2
20260503211046 23 329 3.2 12.9 0.00 0.00 0.00 32 1002.0
20260503210545 23 287 6.4 17.7 0.00 0.00 0.00 30 1002.2
20260503210023 23 306 4.8 14.5 0.00 0.00 0.00 30 1002.2
20260503205521 23 324 4.8 17.7 0.00 0.00 0.00 31 1002.2
20260503205020 23 331 4.8 11.3 0.00 0.00 0.00 32 1002.2
20260503204538 23 304 4.8 14.5 0.00 0.00 0.00 32 1002.3
20260503204016 23 297 6.4 24.1 0.00 0.00 0.00 31 1002.3
20260503203534 23 310 9.7 27.4 0.00 0.00 0.00 30 1002.2
20260503203051 23 305 6.4 22.5 0.00 0.00 0.00 33 1002.3
20260503202529 23 334 6.4 12.9 0.00 0.00 0.00 34 1002.4
20260503202027 23 331 8.0 14.5 0.00 0.00 0.00 35 1002.4
20260503201526 23 330 6.4 16.1 0.00 0.00 0.00 33 1002.4
20260503201024 23 297 11.3 29.0 0.00 0.00 0.00 34 1002.3
20260503200542 23 292 4.8 14.5 0.00 0.00 0.00 36 1002.3
20260503200021 23 305 3.2 11.3 0.00 0.00 0.00 36 1002.3
20260503195619 23 309 3.2 12.9 0.00 0.00 0.00 36 1002.5
20260503195037 23 313 4.8 12.9 0.00 0.00 0.00 35 1002.5
20260503194536 23 281 4.8 12.9 0.00 0.00 0.00 36 1002.4
20260503194033 23 271 3.2 16.1 0.00 0.00 0.00 36 1002.5
20260503193531 23 301 4.8 12.9 0.00 0.00 0.00 37 1002.4
20260503193109 22 273 3.2 9.7 0.00 0.00 0.00 37 1002.5
20260503192527 22 287 4.8 17.7 0.00 0.00 0.00 37 1002.6
20260503192025 22 270 8.0 20.9 0.00 0.00 0.00 38 1002.5
20260503191524 22 244 6.4 20.9 0.00 0.00 0.00 39 1002.6
20260503191022 22 233 3.2 12.9 0.00 0.00 0.00 39 1002.7
20260503190520 22 327 4.8 12.9 0.00 0.00 0.00 39 1002.7
20260503190019 22 230 4.8 12.9 0.00 0.00 0.00 41 1002.7